UNSW-ECO (42723 NORAD) Tracking and Keplerian Element Data

This shows tracking and keplerian element data for the satellite.

Feedback or suggestion? Click here.




ElementValue
Catalog42723
NameUNSW-ECO
Epoch Orbit6544
Epoch Day198.5206396
Epoch Year2018
RAAN197.0532
Inclination51.6364
Eccentricity0.0005634
Argument of Perigee8.1813
Mean Anonmoly351.9278
Mean Motion15.76488861
Decay Rate0.00043649
L11 42723U 98067MC 18198.52063960 .00043649 00000-0 27151-3 0 9991
L22 42723 51.6364 197.0532 0005634 8.1813 351.9278 15.76488861 65449

Live tracking and technical data element details for UNSW-ECO (NORAD 42723). UNSW-ECO can be tracked NOW for your location showing map with azimuth and elevation plus other details from your city location.

Track the satellite on the map from your city or location and see movement details for azimuth, elevation, latitude, longitude, range, height, and movement on the map or in text.







IsCatalogInMostPopularTable: catalog: 42723, numindb: 97
Update: records affected: 1



GetName: 42723 UNSW-ECO

Hit Count: updated at: Thu, 19 Jul 2018 21:13:35 GMT